Date,TemperatureHighF,TemperatureAvgF,TemperatureLowF,DewpointHighF,DewpointAvgF,DewpointLowF,HumidityHigh,HumidityAvg,HumidityLow,PressureMaxIn,PressureMinIn,WindSpeedMaxMPH,WindSpeedAvgMPH,GustSpeedMaxMPH,PrecipitationSumIn
2013-3-1,72,60,51,49,46,41,86,62,38,30.38,30.19,0,0,1,0.00
2013-3-2,68,58,48,52,47,41,91,66,51,30.18,30.02,0,0,2,0.00
2013-3-3,58,49,44,47,45,42,94,86,63,30.06,30.01,0,0,3,0.00
2013-3-4,53,45,42,43,42,39,94,88,70,30.11,30.02,2,0,8,0.00
2013-3-5,53,46,41,44,39,37,92,77,59,30.02,29.78,2,0,8,0.21
2013-3-6,51,47,44,45,40,36,94,79,60,30.03,29.79,0,0,1,0.23
2013-3-7,52,47,41,42,39,34,90,77,53,29.95,29.82,0,0,6,0.02
2013-3-8,58,48,42,41,38,33,89,70,44,30.00,29.79,0,0,1,0.00
2013-3-9,63,52,41,44,38,32,86,61,38,30.25,30.00,0,0,1,0.00
2013-3-10,62,54,47,46,37,23,78,53,30,30.30,30.22,0,0,1,0.00
2013-3-11,66,57,48,47,37,19,82,48,28,30.21,30.06,0,0,1,0.00
2013-3-12,70,58,46,51,46,36,89,64,43,30.11,30.03,0,0,1,0.00
2013-3-13,77,65,56,53,48,41,73,55,37,30.10,30.01,0,0,1,0.00
2013-3-14,67,59,51,51,46,35,82,63,39,30.12,30.01,0,0,1,0.00
2013-3-15,66,57,49,49,43,36,89,61,41,30.08,30.00,0,0,1,0.00
2013-3-16,65,54,45,48,44,39,93,69,44,30.08,29.99,0,0,1,0.00
2013-3-17,62,53,46,44,40,37,79,62,40,30.10,30.01,0,0,1,0.00
2013-3-18,59,51,45,47,42,36,91,73,57,30.09,30.00,0,0,1,0.00
2013-3-19,61,52,45,46,40,32,88,65,41,30.11,30.01,0,0,1,0.09
2013-3-20,54,51,47,52,47,37,94,86,55,30.09,30.02,0,0,1,0.06
2013-3-21,61,50,40,47,42,38,94,75,47,30.09,29.99,0,0,1,0.00
2013-3-22,48,45,42,38,35,28,81,70,47,30.04,29.99,0,0,1,0.00
2013-3-23,64,54,47,38,29,20,66,39,22,30.10,30.01,0,0,1,0.00
2013-3-24,62,52,45,47,42,33,91,70,49,30.05,29.94,0,0,1,0.00
2013-3-25,52,46,42,43,42,40,93,85,69,29.99,29.89,0,0,1,0.00
2013-3-26,57,49,44,46,43,41,91,81,64,29.97,29.91,0,0,1,0.00
2013-3-27,55,50,46,50,46,41,94,86,74,29.97,29.91,0,0,1,0.00
2013-3-28,62,54,50,54,50,48,95,88,69,30.05,29.96,0,0,1,0.01
2013-3-29,72,58,50,52,48,44,90,69,45,30.04,29.98,0,0,1,0.00
2013-3-30,62,53,49,52,49,47,94,87,66,30.03,29.95,0,0,1,0.02
2013-3-31,61,54,51,54,50,46,94,85,59,30.03,29.95,0,0,1,0.32